Content
SEND FEEDBACK

Daily
Averages
Monthly
Summary
United States of America

WOODTICK, CONNECTICUT


Home > North America > United States > Connecticut
Elevation: 340 feet     Latitude: 41 34N     Longitude: 073 02W

WEATHER
 
SELECT A DAY
Number of Records: 388,934;   Date Range: 1/1/95 - 10/20/14
 
SHARE

PRINT THIS DATA

[ ← Previous Day ]
WEATHER ALMANAC - JANUARY 31, 2013
[ Next Day → ]
[ °C ]   °F
Weather ElementAverageHighLow
Temperature46.2 °F59 °F (4:15 am)26.6 °F (11:35 pm)
Dewpoint36.2 °F57.2 °F (4:55 am)8.6 °F (9:15 pm)
Humidity70.8 %94 % (12:35 am)39 % (1:55 pm)
Barometer29.33 in29.67 in (11:35 pm)29.06 in (6:45 am)
Wind Speed16.9 mph32.2 mph (2:55 am)
Wind Gust49.5 mph (4:35 am)
Weather ElementAverage
Visibility7.8 mi
Wind DirectionWSW (242.5 °)

Weather ElementTotal
Precipitation2.61 in
Heating Degree Days22.2 (Base 65)
Averaged from 40 records on January 31, 2013
WEATHER CONDITIONS BREAKOUT
WIND DIRECTION BREAKOUT
WEATHER BY HOUR - JANUARY 31, 2013
[ °C ]   °F
Local TimeTemperatureDewpointHumidityBarometerVisibilityWind DirectionWind SpeedGust SpeedPrecipitationEventsConditions
12:35 AM55.4 °F53.6 °F94 %29.38 in3.0 miSSW (200°)20.7 mph39.1 mph0.01 inOvercast
12:55 AM55.4 °F53.6 °F94 %29.36 in5.0 miSSW (200°)25.3 mph35.7 mph0.05 inOvercast
1:15 AM55.4 °F53.6 °F94 %29.34 in5.0 miSSW (200°)18.4 mph29.9 mph0.13 inOvercast
1:35 AM55.4 °F53.6 °F94 %29.32 in4.0 miSouth (190°)27.6 mph36.8 mph0.17 inOvercast
1:55 AM55.4 °F53.6 °F94 %29.30 in3.0 miSSW (200°)21.9 mph38.0 mph0.19 inOvercast
2:15 AM55.4 °F53.6 °F94 %29.27 in3.0 miSSW (200°)19.6 mph36.8 mph0.05 inOvercast
2:35 AM55.4 °F53.6 °F94 %29.24 in3.0 miSSW (200°)20.7 mph34.5 mph0.08 inOvercast
2:55 AM57.2 °F53.6 °F88 %29.21 in5.0 miSouth (190°)32.2 mph47.2 mph0.13 inOvercast
3:15 AM57.2 °F55.4 °F94 %29.19 in5.0 miSSW (200°)23.0 mph36.8 mph0.05 inOvercast
3:35 AM57.2 °F55.4 °F94 %29.15 in5.0 miSSW (200°)23.0 mph46.0 mph0.09 inOvercast
3:55 AM57.2 °F55.4 °F94 %29.12 in4.0 miSouth (190°)25.3 mph40.3 mph0.22 inOvercast
4:15 AM59.0 °F55.4 °F88 %29.08 in3.0 miSSW (200°)29.9 mph47.2 mph0.22 inOvercast
4:35 AM59.0 °F55.4 °F88 %29.07 in4.0 miSSW (200°)31.1 mph49.5 mph0.46 inOvercast
4:55 AM59.0 °F57.2 °F94 %29.11 in4.0 miSW (220°)24.2 mph39.1 mph0.71 inOvercast
5:15 AM57.2 °F55.4 °F94 %29.11 in10.0 miSW (220°)13.8 mph24.2 mph0.01 inMostly Cloudy
5:35 AM57.2 °F53.6 °F88 %29.13 in10.0 miSSW (210°)13.8 mph23.0 mph0.04 inOvercast
5:45 AM57.2 °F53.6 °F88 %29.10 in6.0 miSW (220°)12.7 mph20.7 mphRainLight Rain
6:45 AM55.4 °F51.8 °F88 %29.06 in10.0 miSW (220°)11.5 mph17.3 mphRainLight Rain
7:05 AM55.4 °F51.8 °F88 %29.06 in10.0 miSW (220°)11.5 mph17.3 mphRainLight Rain
7:45 AM51.8 °F46.4 °F82 %29.09 in10.0 miWest (280°)11.5 mph31.1 mphRainLight Rain
8:20 AM48.2 °F42.8 °F82 %29.13 in10.0 miWest (280°)18.4 mph31.1 mphRainLight Rain
8:45 AM46.4 °F37.4 °F71 %29.16 in10.0 miWNW (290°)16.1 mph31.1 mphMostly Cloudy
9:45 AM44.6 °F33.8 °F66 %29.21 in10.0 miWest (280°)15.0 mph33.4 mphMostly Cloudy
10:45 AM44.6 °F26.6 °F49 %29.28 in10.0 miWest (280°)17.3 mph34.5 mphMostly Cloudy
11:45 AM42.8 °F24.8 °F49 %29.31 in10.0 miWNW (290°)20.7 mph36.8 mphMostly Cloudy
12:45 PM39.2 °F21.2 °F49 %29.35 in10.0 miWNW (300°)13.8 mph27.6 mphScattered Clouds
1:55 PM42.8 °F19.4 °F39 %29.36 in10.0 miWest (280°)12.7 mph27.6 mphScattered Clouds
2:55 PM39.2 °F17.6 °F42 %29.41 in10.0 miWest (280°)11.5 mph23.0 mphScattered Clouds
3:45 PM41.0 °F17.6 °F39 %29.42 in10.0 miWest (280°)11.5 mph28.8 mphScattered Clouds
4:45 PM37.4 °F15.8 °F41 %29.48 in10.0 miWest (280°)9.2 mph34.5 mphMostly Cloudy
6:45 PM33.8 °F15.8 °F48 %29.58 in10.0 miWNW (300°)12.7 mph27.6 mphMostly Cloudy
7:45 PM30.2 °F14.0 °F51 %29.61 in10.0 miWest (280°)12.7 mph25.3 mphMostly Cloudy
9:15 PM30.2 °F8.6 °F40 %29.64 in10.0 miWest (280°)10.4 mph20.7 mphClear
9:35 PM28.4 °F8.6 °F43 %29.65 in10.0 miWest (280°)9.2 mph20.7 mphScattered Clouds
9:55 PM30.2 °F10.4 °F44 %29.65 in10.0 miWest (280°)11.5 mph20.7 mphMostly Cloudy
10:15 PM28.4 °F10.4 °F47 %29.65 in10.0 miWSW (250°)9.2 mph24.2 mphPartly Cloudy
10:35 PM28.4 °F10.4 °F47 %29.66 in10.0 miWSW (250°)11.5 mph24.2 mphScattered Clouds
10:55 PM28.4 °F12.2 °F51 %29.66 in10.0 miWest (270°)9.2 mph24.2 mphMostly Cloudy
11:15 PM28.4 °F12.2 °F51 %29.66 in10.0 miWSW (250°)13.8 mph18.4 mphMostly Cloudy
11:35 PM26.6 °F12.2 °F55 %29.67 in10.0 miWest (260°)11.5 mph20.7 mphOvercast
Hourly data recorded from KOXC, located miles away from Woodtick, Connecticut







STORIES FROM OUR PARTNERS